1486317600.42,7288,11.0,72292.0,-9.97,-38.17,-38.91,0,*6C
1486317601.64,7289,11.0,72294.0,-9.97,-38.23,-38.97,0,*6C
1486317602.87,7290,11.0,72290.3,-9.97,-38.35,-39.23,0,*6D
1486317604.12,7291,11.0,72288.5,-9.95,-38.05,-38.79,0,*63
1486317605.35,7292,11.0,72284.3,-9.95,-37.87,-38.61,0,*6C
1486317606.57,7293,11.0,72288.5,-9.97,-37.99,-38.73,0,*63
1486317607.82,7294,11.0,72284.5,-9.95,-38.05,-38.79,0,*66
1486317609.04,7295,11.0,72280.3,-9.95,-38.35,-38.97,0,*64
1486317610.26,7296,11.0,72278.8,-9.97,-38.35,-39.15,0,*6E
1486317611.51,7297,11.0,72284.3,-9.95,-38.17,-39.15,0,*6D
1486317612.78,7298,11.0,72282.3,-9.95,-38.23,-39.15,0,*65
1486317614.03,7299,11.0,72290.5,-9.95,-38.17,-38.79,0,*68
1486317615.26,7300,11.0,72290.8,-9.97,-38.17,-38.91,0,*6D
1486317616.51,7301,11.0,72288.0,-9.95,-38.05,-38.79,0,*6B
1486317617.73,7302,11.0,72284.3,-9.95,-38.17,-38.97,0,*6B
1486317618.98,7303,11.0,72288.8,-9.91,-38.11,-38.85,0,*6B
1486317620.25,7304,11.0,72288.5,-9.91,-38.11,-38.91,0,*69
1486317621.48,7305,11.0,72288.0,-9.91,-38.17,-39.09,0,*6E
1486317622.73,7306,11.0,72288.8,-9.91,-37.93,-38.73,0,*62
1486317623.99,7307,11.0,72284.5,-9.89,-37.81,-38.67,0,*6C
1486317625.24,7308,11.0,72290.5,-9.89,-37.93,-38.49,0,*6C
1486317626.47,7309,11.0,72292.0,-9.91,-38.17,-39.09,0,*62
1486317627.72,7310,11.0,72290.8,-9.91,-38.29,-39.09,0,*67
1486317628.97,7311,11.0,72284.3,-9.91,-38.49,-39.35,0,*6F
1486317630.19,7312,11.0,72288.0,-9.91,-38.35,-39.35,0,*67
1486317631.44,7313,11.0,72290.0,-9.91,-38.49,-39.35,0,*6D
1486317632.68,7314,11.0,72288.5,-9.91,-38.35,-39.15,0,*63
1486317633.93,7315,11.0,72280.3,-9.91,-38.49,-39.47,0,*6E
1486317635.15,7316,11.0,72278.8,-9.91,-38.55,-39.47,0,*60
1486317636.4,7317,11.0,72272.0,-9.91,-38.49,-39.35,0,*69
1486317637.66,7318,11.0,72286.8,-9.91,-38.29,-39.09,0,*6F
1486317638.87,7319,11.0,72282.3,-9.89,-38.11,-38.73,0,*60
1486317640.12,7320,11.0,72278.0,-9.89,-38.11,-38.91,0,*66
1486317641.4,7321,11.0,72274.8,-9.91,-37.99,-38.91,0,*61
1486317642.65,7322,11.0,72268.5,-9.91,-38.17,-38.91,0,*6B
1486317643.92,7323,11.0,72276.5,-9.91,-38.29,-39.29,0,*65
1486317645.21,7324,11.0,72280.3,-9.91,-37.81,-38.67,0,*64
1486317646.47,7325,11.0,72284.8,-9.91,-37.81,-38.55,0,*64
1486317647.69,7326,11.0,72288.0,-9.89,-37.99,-38.73,0,*63
1486317648.91,7327,11.0,72286.3,-9.89,-38.11,-38.85,0,*64
1486317650.14,7328,11.0,72280.8,-9.89,-37.99,-38.85,0,*64
1486317651.39,7329,11.0,72284.5,-9.89,-38.11,-38.91,0,*6F
1486317652.64,7330,11.0,72284.5,-9.91,-38.35,-39.15,0,*65
1486317653.86,7331,11.0,72290.5,-9.89,-38.11,-38.85,0,*63
1486317655.11,7332,11.0,72286.3,-9.89,-37.99,-38.91,0,*6A
1486317656.34,7333,11.0,72284.5,-9.89,-38.17,-38.91,0,*62
1486317657.56,7334,11.0,72288.0,-9.89,-38.11,-38.85,0,*66
1486317658.78,7335,11.0,72292.3,-9.89,-37.99,-38.73,0,*61
1486317660.0,7336,11.0,72288.0,-9.89,-37.99,-38.73,0,*62
1486317661.22,7337,11.0,72292.8,-9.89,-37.99,-38.73,0,*63
1486317662.45,7338,11.0,72292.3,-9.87,-38.05,-38.85,0,*61
1486317663.72,7339,11.0,72282.8,-9.87,-38.23,-39.03,0,*6B
1486317664.98,7340,11.0,72284.0,-9.87,-38.23,-39.23,0,*67
1486317666.23,7341,11.0,72292.8,-9.87,-38.43,-39.23,0,*60
1486317667.47,7342,11.0,72290.8,-9.87,-38.43,-39.23,0,*63
1486317668.72,7343,11.0,72286.0,-9.87,-38.43,-39.23,0,*62
1486317669.97,7344,11.0,72276.8,-9.87,-38.29,-39.09,0,*61
1486317671.21,7345,11.0,72280.3,-9.85,-38.23,-39.03,0,*62
1486317672.48,7346,11.0,72282.3,-9.87,-38.23,-39.03,0,*63
1486317673.73,7347,11.0,72284.5,-9.87,-38.23,-39.09,0,*68
1486317674.97,7348,11.0,72284.8,-9.87,-38.43,-39.23,0,*69
1486317676.2,7349,11.0,72286.0,-9.87,-38.43,-39.09,0,*60
1486317677.47,7350,11.0,72286.3,-9.87,-38.29,-39.29,0,*66
1486317678.71,7351,11.0,72290.5,-9.87,-38.43,-39.23,0,*61
1486317679.96,7352,11.0,72286.5,-9.87,-38.43,-39.23,0,*62
1486317681.23,7353,11.0,72286.5,-9.87,-38.49,-39.41,0,*6D
1486317682.45,7354,11.0,72284.8,-9.89,-38.49,-39.47,0,*62
1486317683.73,7355,11.0,72290.5,-9.87,-38.49,-39.29,0,*65
1486317684.97,7356,11.0,72290.0,-9.87,-38.43,-39.41,0,*62
1486317686.22,7357,11.0,72280.8,-9.87,-38.61,-39.41,0,*63
1486317687.44,7358,11.0,72280.0,-9.85,-38.43,-39.23,0,*6A
1486317688.69,7359,11.0,72276.8,-9.87,-38.29,-39.09,0,*6D
1486317689.94,7360,11.0,72284.8,-9.87,-38.29,-39.09,0,*67
1486317691.19,7361,11.0,72284.3,-9.87,-38.23,-38.85,0,*69
1486317692.46,7362,11.0,72278.5,-9.87,-38.11,-39.03,0,*64
1486317693.68,7363,11.0,72278.3,-9.87,-38.05,-38.85,0,*6F
1486317694.96,7364,11.0,72278.8,-9.87,-37.93,-38.79,0,*6B
1486317696.21,7365,11.0,72292.5,-9.87,-37.87,-38.79,0,*6F
1486317697.46,7366,11.0,72296.5,-9.87,-38.05,-38.79,0,*69
1486317698.71,7367,11.0,72294.3,-9.87,-38.23,-39.09,0,*6A
1486317699.96,7368,11.0,72288.3,-9.87,-38.29,-39.09,0,*6F
1486317701.21,7369,11.0,72290.0,-9.87,-38.29,-39.09,0,*6E
1486317702.46,7370,11.0,72294.0,-9.85,-38.23,-39.23,0,*66
1486317703.71,7371,11.0,72292.0,-9.87,-38.29,-39.09,0,*67
1486317704.95,7372,11.0,72292.8,-9.87,-38.43,-39.23,0,*60
1486317706.2,7373,11.0,72290.3,-9.87,-38.43,-39.41,0,*65
1486317707.41,7374,11.0,72288.8,-9.87,-38.61,-39.47,0,*64
1486317708.67,7375,11.0,72288.0,-9.85,-38.49,-39.41,0,*6B
1486317709.91,7376,11.0,72290.0,-9.87,-38.49,-39.47,0,*6C
1486317711.16,7377,11.0,72288.5,-9.87,-38.61,-39.29,0,*6F
1486317712.41,7378,11.0,72294.3,-9.87,-38.61,-39.59,0,*67
1486317713.68,7379,11.0,72290.3,-9.87,-38.67,-39.59,0,*60
1486317714.93,7380,11.0,72290.5,-9.87,-38.61,-39.29,0,*67
1486317716.15,7381,11.0,72286.3,-9.87,-38.61,-39.47,0,*6E
1486317717.4,7382,11.0,72290.5,-9.87,-38.61,-39.59,0,*62
1486317718.62,7383,11.0,72292.8,-9.87,-38.61,-39.47,0,*6C
1486317719.86,7384,11.0,72298.8,-9.87,-38.67,-39.47,0,*6D
1486317721.07,7385,11.0,72286.0,-9.87,-38.61,-39.47,0,*6A
1486317722.27,7386,11.0,72292.0,-9.85,-38.61,-39.47,0,*6B
1486317723.54,7387,11.0,72290.8,-9.87,-38.49,-39.23,0,*60
1486317724.81,7388,11.0,72290.3,-9.87,-38.23,-39.23,0,*63
1486317726.06,7389,11.0,72282.3,-9.87,-38.29,-39.09,0,*60
1486317727.32,7390,11.0,72280.8,-9.87,-38.29,-39.09,0,*68
1486317728.54,7391,11.0,72282.8,-9.85,-38.23,-39.09,0,*61
1486317729.78,7392,11.0,72286.3,-9.87,-38.43,-39.29,0,*64
1486317731.01,7393,11.0,72286.3,-9.85,-38.23,-39.09,0,*63
1486317732.26,7394,11.06,72288.0,-9.87,-38.05,-38.79,0,*64
1486317733.53,7395,11.0,72280.0,-9.87,-38.29,-39.23,0,*65
1486317734.75,7396,11.0,72286.0,-9.85,-38.43,-39.23,0,*68
1486317736.0,7397,11.0,72290.3,-9.87,-38.43,-39.29,0,*61
1486317737.27,7398,11.0,72282.8,-9.87,-38.29,-39.23,0,*68
1486317738.52,7399,11.0,72280.8,-9.85,-38.29,-39.29,0,*61
1486317739.76,7400,11.0,72280.5,-9.87,-38.43,-39.23,0,*62
1486317741.04,7401,11.0,72282.8,-9.87,-38.49,-39.29,0,*63
1486317742.26,7402,11.0,72288.8,-9.85,-38.43,-39.23,0,*62
1486317743.49,7403,11.0,72278.3,-9.85,-38.29,-39.09,0,*67
1486317744.73,7404,11.0,72276.5,-9.87,-38.43,-39.23,0,*66
1486317746.0,7405,11.0,72274.8,-9.87,-38.11,-39.23,0,*60
1486317747.24,7406,11.0,72282.8,-9.87,-38.43,-39.41,0,*60
1486317748.52,7407,11.0,72284.5,-9.87,-38.49,-39.29,0,*65
1486317749.77,7408,11.0,72284.8,-9.85,-38.49,-39.29,0,*68
1486317751.04,7409,11.0,72274.0,-9.87,-38.49,-39.41,0,*65
1486317752.32,7410,11.06,72280.3,-9.87,-38.49,-39.29,0,*63
1486317753.55,7411,11.0,72276.5,-9.85,-38.29,-39.09,0,*64
1486317754.82,7412,11.0,72280.5,-9.87,-38.29,-39.23,0,*6D
1486317756.05,7413,11.0,72284.3,-9.85,-38.29,-39.09,0,*66
1486317757.31,7414,11.0,72286.8,-9.87,-38.11,-39.03,0,*62
1486317758.53,7415,11.0,72280.8,-9.85,-38.43,-39.23,0,*64
1486317759.79,7416,11.0,72290.3,-9.85,-38.49,-39.29,0,*67
1486317761.01,7417,11.0,72282.5,-9.85,-38.43,-39.29,0,*6C
1486317762.26,7418,11.0,72284.0,-9.87,-38.29,-39.09,0,*6F
1486317763.49,7419,11.0,72284.0,-9.85,-38.29,-39.09,0,*6C
1486317764.71,7420,11.0,72278.8,-9.85,-38.11,-39.09,0,*6D
1486317765.91,7421,11.0,72286.3,-9.85,-38.05,-38.85,0,*6C
1486317767.13,7422,11.0,72280.3,-9.85,-38.43,-39.23,0,*60
1486317768.38,7423,11.0,72284.3,-9.85,-38.67,-39.41,0,*63
1486317769.61,7424,11.0,72282.8,-9.85,-38.29,-39.09,0,*62
1486317770.85,7425,11.0,72282.5,-9.87,-38.43,-39.23,0,*65
1486317772.08,7426,11.0,72292.5,-9.85,-38.29,-38.85,0,*65
1486317773.33,7427,11.0,72288.8,-9.85,-38.29,-39.03,0,*6B
1486317774.58,7428,11.0,72286.8,-9.85,-38.29,-39.23,0,*66
1486317775.78,7429,11.0,72288.0,-9.85,-38.43,-39.09,0,*63
1486317777.02,7430,11.0,72286.0,-9.83,-38.35,-39.23,0,*64
1486317778.24,7431,11.0,72280.8,-9.85,-38.23,-39.09,0,*6C
1486317779.46,7432,11.0,72288.3,-9.85,-38.11,-38.85,0,*6B
1486317780.69,7433,11.0,72280.0,-9.85,-38.11,-38.85,0,*6A
1486317781.92,7434,11.0,72288.8,-9.85,-37.87,-38.49,0,*6D
1486317783.18,7435,11.0,72284.0,-9.83,-38.23,-39.03,0,*64
1486317784.41,7436,11.0,72276.0,-9.81,-38.17,-39.15,0,*65
1486317785.67,7437,11.0,72282.5,-9.83,-38.23,-39.15,0,*61
1486317786.89,7438,11.06,72292.3,-9.83,-38.55,-39.35,0,*6D
1486317788.15,7439,11.0,72290.0,-9.83,-38.23,-39.03,0,*68
1486317789.4,7440,11.0,72288.8,-9.83,-38.05,-38.79,0,*6E
1486317790.61,7441,11.0,72294.5,-9.81,-37.99,-38.73,0,*6D
1486317791.83,7442,11.0,72286.3,-9.83,-38.05,-38.97,0,*6C
1486317793.07,7443,11.0,72288.0,-9.83,-38.35,-39.03,0,*62
1486317794.31,7444,11.0,72288.0,-9.83,-38.43,-39.23,0,*66
1486317795.53,7445,11.0,72292.8,-9.81,-38.35,-39.15,0,*61
1486317796.77,7446,11.0,72286.3,-9.83,-38.05,-38.79,0,*68
1486317798.01,7447,11.0,72288.0,-9.83,-37.99,-38.73,0,*69
1486317799.26,7448,11.0,72284.0,-9.81,-38.23,-39.15,0,*6B
1486317800.5,7449,11.0,72290.3,-9.83,-38.17,-39.03,0,*68
1486317801.72,7450,11.0,72286.0,-9.83,-38.05,-38.97,0,*6F
1486317802.91,7451,11.0,72288.0,-9.81,-38.05,-38.97,0,*6C
1486317804.13,7452,11.0,72284.8,-9.81,-38.17,-39.15,0,*67
1486317805.4,7453,11.0,72286.8,-9.83,-38.23,-39.15,0,*63
1486317806.64,7454,11.0,72290.3,-9.83,-38.35,-39.15,0,*63
1486317807.88,7455,11.0,72288.5,-9.83,-38.17,-39.03,0,*65
1486317809.12,7456,11.0,72286.3,-9.81,-38.23,-39.03,0,*63
1486317810.36,7457,11.0,72286.3,-9.83,-38.35,-39.15,0,*60
1486317811.6,7458,11.0,72288.3,-9.81,-38.23,-39.03,0,*6D
1486317812.8,7459,11.0,72282.0,-9.81,-38.35,-38.97,0,*67
1486317814.01,7460,11.0,72290.3,-9.81,-38.35,-39.23,0,*63
1486317815.2,7461,11.0,72292.0,-9.81,-38.43,-39.35,0,*64
1486317816.39,7462,11.0,72290.3,-9.81,-38.43,-39.35,0,*67
1486317817.6,7463,11.0,72284.8,-9.81,-38.55,-39.41,0,*62
1486317818.82,7464,11.0,72282.3,-9.81,-38.61,-39.41,0,*62
1486317820.04,7465,11.0,72290.5,-9.81,-38.55,-39.41,0,*64
1486317821.26,7466,11.0,72288.0,-9.81,-38.43,-39.23,0,*64
1486317822.5,7467,11.0,72284.0,-9.83,-38.17,-39.15,0,*63
1486317823.72,7468,11.0,72284.5,-9.81,-38.35,-39.15,0,*6E
1486317824.94,7469,11.0,72284.5,-9.81,-38.35,-39.23,0,*6A
1486317826.18,7470,11.0,72290.0,-9.83,-38.61,-39.53,0,*66
1486317827.42,7471,11.0,72292.5,-9.83,-38.73,-39.53,0,*64
1486317828.68,7472,11.0,72286.3,-9.83,-38.79,-39.53,0,*6D
1486317829.92,7473,11.0,72286.8,-9.83,-38.61,-39.53,0,*65
1486317831.17,7474,11.0,72288.8,-9.83,-38.61,-39.41,0,*61
1486317832.38,7475,11.0,72290.0,-9.83,-38.55,-39.35,0,*64
1486317833.62,7476,11.0,72288.3,-9.83,-38.73,-39.53,0,*63
1486317834.85,7477,11.06,72292.5,-9.83,-38.73,-39.53,0,*62
1486317836.09,7478,11.0,72284.0,-9.83,-38.61,-39.53,0,*6E
1486317837.31,7479,11.0,72288.0,-9.83,-38.43,-39.35,0,*6F
1486317838.52,7480,11.0,72286.3,-9.83,-38.43,-39.35,0,*69
1486317839.76,7481,11.0,72284.3,-9.83,-38.55,-39.41,0,*6C
1486317841.0,7482,11.0,72276.8,-9.83,-38.61,-39.41,0,*68
1486317842.24,7483,11.0,72280.8,-9.83,-38.73,-39.41,0,*6A
1486317843.48,7484,11.0,72284.8,-9.83,-38.55,-39.53,0,*6A
1486317844.69,7485,11.0,72282.8,-9.85,-38.67,-39.47,0,*69
1486317845.91,7486,11.0,72284.3,-9.85,-38.67,-39.47,0,*6A
1486317847.14,7487,11.0,72292.3,-9.85,-38.61,-39.59,0,*62
1486317848.38,7488,11.0,72294.3,-9.83,-38.61,-39.53,0,*61
1486317849.61,7489,11.0,72294.5,-9.83,-38.55,-39.53,0,*67
1486317850.83,7490,11.0,72298.8,-9.83,-38.35,-39.35,0,*69
1486317852.1,7491,11.0,72302.3,-9.87,-38.49,-39.41,0,*64
1486317853.31,7492,11.0,72294.8,-9.85,-38.67,-39.47,0,*6F
1486317854.55,7493,11.0,72294.3,-9.83,-38.61,-39.53,0,*6B
1486317855.77,7494,11.0,72296.3,-9.85,-38.67,-39.47,0,*69
1486317857.02,7495,11.0,72294.3,-9.85,-38.79,-39.59,0,*68
1486317858.27,7496,11.0,72294.3,-9.83,-38.61,-39.41,0,*6D
1486317859.48,7497,11.0,72298.3,-9.85,-38.67,-39.47,0,*6A
1486317860.76,7498,11.0,72302.8,-9.87,-38.79,-39.59,0,*67
1486317862.03,7499,11.0,72298.0,-9.87,-38.67,-39.59,0,*69
1486317863.22,7500,11.0,72298.0,-9.85,-38.61,-39.47,0,*63
1486317864.42,7501,11.0,72294.8,-9.85,-38.61,-39.47,0,*62
1486317865.67,7502,11.0,72302.0,-9.85,-38.67,-39.59,0,*68
1486317866.9,7503,11.0,72304.8,-9.87,-38.85,-39.65,0,*68
1486317868.15,7504,11.0,72304.3,-9.87,-38.79,-39.65,0,*6C
1486317869.39,7505,11.0,72300.0,-9.87,-38.67,-39.47,0,*62
1486317870.66,7506,11.0,72298.0,-9.87,-38.67,-39.59,0,*6E
1486317871.89,7507,11.0,72296.5,-9.87,-38.85,-39.65,0,*6C
1486317873.13,7508,11.0,72294.3,-9.87,-38.85,-39.65,0,*63
1486317874.38,7509,11.0,72298.0,-9.87,-38.91,-39.65,0,*67
1486317875.65,7510,11.0,72298.0,-9.87,-38.91,-39.79,0,*62
1486317876.92,7511,11.0,72296.5,-9.87,-38.91,-39.97,0,*63
1486317878.16,7512,11.0,72296.0,-9.87,-38.85,-39.65,0,*68
1486317879.43,7513,11.0,72294.8,-9.87,-38.79,-39.59,0,*65
1486317880.66,7514,11.0,72298.3,-9.87,-38.85,-39.65,0,*6E
1486317881.86,7515,11.06,72302.5,-9.89,-38.97,-39.85,0,*6C
1486317883.11,7516,11.0,72302.0,-9.89,-38.91,-39.71,0,*62
1486317884.35,7517,11.0,72296.3,-9.89,-38.67,-39.53,0,*6A
1486317885.56,7518,11.0,72296.8,-9.89,-38.85,-39.65,0,*6C
1486317886.77,7519,11.0,72296.0,-9.89,-38.85,-39.65,0,*6D
1486317888.02,7520,11.0,72298.0,-9.89,-38.91,-39.71,0,*67
1486317889.25,7521,11.0,72302.3,-9.91,-39.09,-39.91,0,*61
1486317890.45,7522,11.0,72296.5,-9.89,-38.97,-39.91,0,*6D
1486317891.67,7523,11.0,72296.5,-9.91,-38.97,-39.91,0,*65
1486317892.92,7524,11.06,72300.3,-9.89,-38.91,-39.71,0,*63
1486317894.16,7525,11.0,72302.3,-9.91,-38.67,-39.47,0,*67
1486317895.41,7526,11.0,72290.3,-9.91,-38.35,-39.15,0,*64
1486317896.63,7527,11.0,72290.5,-9.91,-38.55,-39.35,0,*61
1486317897.87,7528,11.0,72280.5,-9.91,-38.35,-39.53,0,*68
1486317899.09,7529,11.0,72286.8,-9.91,-38.55,-39.35,0,*6F
1486317900.31,7530,11.0,72284.0,-9.91,-38.35,-39.35,0,*61
1486317901.56,7531,11.0,72290.5,-9.91,-38.17,-38.91,0,*6F
1486317902.81,7532,11.0,72286.3,-9.91,-38.17,-38.91,0,*6C
1486317904.03,7533,11.0,72280.5,-9.89,-38.17,-38.91,0,*64
1486317905.25,7534,11.0,72290.3,-9.89,-37.93,-38.73,0,*6C
1486317906.47,7535,11.0,72288.8,-9.89,-38.11,-38.73,0,*68
1486317907.69,7536,11.0,72286.5,-9.89,-37.99,-38.73,0,*64
1486317908.94,7537,11.0,72290.8,-9.91,-38.11,-38.85,0,*6A
1486317910.16,7538,11.0,72294.0,-9.89,-38.35,-39.29,0,*6D
1486317911.38,7539,11.0,72296.0,-9.89,-38.35,-39.15,0,*63
1486317912.6,7540,11.0,72294.8,-9.89,-38.35,-39.29,0,*62
1486317913.82,7541,11.0,72294.3,-9.89,-38.35,-39.29,0,*63
1486317915.01,7542,11.0,72298.0,-9.89,-38.55,-39.35,0,*6B
1486317916.23,7543,11.0,72298.3,-9.89,-38.67,-39.47,0,*6E
1486317917.5,7544,11.0,72296.0,-9.87,-38.49,-39.23,0,*69
1486317918.74,7545,11.0,72296.0,-9.91,-38.67,-39.47,0,*61
1486317919.97,7546,11.06,72298.3,-9.89,-38.85,-39.53,0,*62
1486317921.16,7547,11.0,72298.8,-9.89,-38.55,-39.47,0,*6B
1486317922.38,7548,11.0,72300.0,-9.91,-38.55,-39.47,0,*6D
1486317923.6,7549,11.0,72298.8,-9.91,-38.55,-39.47,0,*6C
1486317924.79,7550,11.0,72298.0,-9.89,-38.35,-39.35,0,*6E
1486317926.02,7551,11.0,72304.3,-9.89,-38.17,-39.15,0,*6D
1486317927.27,7552,11.0,72306.8,-9.91,-38.49,-39.47,0,*6B
1486317928.49,7553,11.0,72304.0,-9.89,-38.49,-39.35,0,*66
1486317929.71,7554,11.0,72300.3,-9.91,-38.55,-39.35,0,*65
1486317930.9,7555,11.0,72302.3,-9.89,-38.55,-39.47,0,*68
1486317932.09,7556,11.0,72300.3,-9.89,-38.55,-39.47,0,*6B
1486317933.31,7557,11.0,72302.8,-9.91,-38.55,-39.35,0,*66
1486317934.53,7558,11.0,72306.3,-9.89,-38.67,-39.35,0,*61
1486317935.75,7559,11.0,72304.5,-9.89,-38.67,-39.65,0,*65
1486317936.99,7560,11.0,72304.8,-9.89,-38.67,-39.53,0,*6A
1486317938.26,7561,11.0,72310.0,-9.91,-38.67,-39.53,0,*62
1486317939.48,7562,11.06,72310.3,-9.91,-38.55,-39.47,0,*65
1486317940.67,7563,11.0,72302.0,-9.89,-38.55,-39.47,0,*6D
1486317941.89,7564,11.0,72298.8,-9.89,-38.67,-39.35,0,*6E
1486317943.17,7565,11.06,72302.8,-9.91,-38.49,-39.29,0,*67
1486317944.36,7566,11.0,72300.5,-9.89,-38.55,-39.47,0,*68
1486317945.57,7567,11.0,72304.3,-9.89,-38.67,-39.47,0,*68
1486317946.85,7568,11.06,72306.3,-9.91,-38.29,-39.15,0,*63
1486317948.05,7569,11.0,72304.5,-9.89,-38.17,-39.09,0,*6B
1486317949.26,7570,11.0,72300.8,-9.89,-38.17,-39.09,0,*63
1486317950.48,7571,11.0,72302.8,-9.89,-38.35,-39.29,0,*60
1486317951.73,7572,11.0,72302.8,-9.89,-38.49,-39.29,0,*68
1486317952.98,7573,11.0,72298.5,-9.89,-38.49,-39.15,0,*66
1486317954.23,7574,11.0,72298.5,-9.87,-38.11,-39.09,0,*6F
1486317955.47,7575,11.0,72292.0,-9.87,-38.43,-39.41,0,*65
1486317956.75,7576,11.06,72296.3,-9.87,-38.67,-39.59,0,*69
1486317958.02,7577,11.0,72296.3,-9.87,-38.79,-39.59,0,*67
1486317959.25,7578,11.0,72298.3,-9.89,-38.91,-39.65,0,*6F
1486317960.49,7579,11.0,72298.5,-9.89,-38.67,-39.53,0,*62
1486317961.71,7580,11.0,72294.5,-9.89,-38.73,-39.53,0,*61
1486317962.9,7581,11.0,72286.5,-9.89,-38.55,-39.47,0,*61
1486317964.13,7582,11.0,72288.3,-9.89,-38.49,-39.35,0,*6A
1486317965.34,7583,11.0,72294.8,-9.89,-38.67,-39.47,0,*62
1486317966.56,7584,11.0,72294.8,-9.91,-38.55,-39.47,0,*6D
1486317967.76,7585,11.0,72302.8,-9.89,-38.55,-39.47,0,*65
1486317968.95,7586,11.06,72308.3,-9.89,-38.55,-39.47,0,*66
1486317970.16,7587,11.06,72310.8,-9.89,-38.67,-39.47,0,*66
1486317971.41,7588,11.0,72304.0,-9.91,-38.73,-39.53,0,*60
1486317972.63,7589,11.0,72294.3,-9.89,-38.49,-39.35,0,*61
1486317973.87,7590,11.0,72298.3,-9.91,-38.67,-39.47,0,*69
1486317975.11,7591,11.0,72296.0,-9.91,-38.73,-39.53,0,*68
1486317976.31,7592,11.0,72292.0,-9.89,-38.73,-39.65,0,*67
1486317977.53,7593,11.0,72296.3,-9.89,-38.73,-39.53,0,*63
1486317978.78,7594,11.0,72296.3,-9.91,-38.97,-39.71,0,*67
1486317980.03,7595,11.0,72298.5,-9.91,-38.97,-39.71,0,*66
1486317981.27,7596,11.0,72302.8,-9.91,-38.97,-39.71,0,*65
1486317982.5,7597,11.0,72298.5,-9.91,-38.73,-39.65,0,*6B
1486317983.75,7598,11.0,72296.8,-9.91,-38.73,-39.53,0,*61
1486317984.99,7599,11.0,72302.0,-9.91,-38.67,-39.47,0,*60
1486317986.23,7600,11.0,72296.5,-9.91,-38.67,-39.47,0,*63
1486317987.44,7601,11.0,72302.3,-9.89,-38.67,-39.47,0,*6B
1486317988.68,7602,11.0,72298.3,-9.91,-38.85,-39.65,0,*6D
1486317989.93,7603,11.0,72298.8,-9.91,-38.85,-39.71,0,*69
1486317991.18,7604,11.0,72298.5,-9.91,-38.73,-39.71,0,*67
1486317992.43,7605,11.0,72302.5,-9.91,-38.73,-39.53,0,*66
1486317993.67,7606,11.0,72296.8,-9.91,-38.49,-39.35,0,*6C
1486317994.95,7607,11.06,72298.3,-9.91,-38.49,-39.29,0,*60
1486317996.2,7608,11.0,72294.0,-9.91,-38.11,-38.85,0,*65
1486317997.45,7609,11.0,72294.3,-9.91,-37.93,-38.73,0,*68
1486317998.73,7610,11.0,72292.8,-9.91,-37.81,-38.67,0,*66
1486317999.96,7611,11.0,72292.0,-9.89,-37.93,-38.55,0,*6C
1486318001.18,7612,11.0,72290.3,-9.89,-37.93,-38.73,0,*6B
1486318002.41,7613,11.0,72290.5,-9.89,-38.29,-39.09,0,*68
1486318003.6,7614,11.0,72292.0,-9.89,-38.55,-39.47,0,*6E
1486318004.8,7615,11.0,72286.3,-9.89,-38.55,-39.47,0,*6F
1486318006.04,7616,11.0,72284.8,-9.89,-38.67,-39.53,0,*68
1486318007.27,7617,11.0,72286.8,-9.89,-38.85,-39.71,0,*65
1486318008.47,7618,11.0,72286.0,-9.89,-38.73,-39.65,0,*66
1486318009.69,7619,11.0,72290.8,-9.89,-38.73,-39.53,0,*62
1486318010.88,7620,11.0,72284.3,-9.89,-38.55,-39.35,0,*6C
1486318012.1,7621,11.0,72282.8,-9.89,-38.67,-39.47,0,*69
1486318013.36,7622,11.0,72292.3,-9.91,-38.67,-39.53,0,*66
1486318014.62,7623,11.0,72288.8,-9.89,-38.49,-39.29,0,*6F
1486318015.81,7624,11.0,72284.5,-9.89,-38.55,-39.47,0,*6D
1486318017.03,7625,11.0,72280.5,-9.89,-38.35,-39.15,0,*6D
1486318018.28,7626,11.0,72274.8,-9.91,-38.35,-38.91,0,*6A
1486318019.56,7627,11.06,72272.0,-9.91,-38.49,-39.15,0,*6D
1486318020.79,7628,11.06,72280.8,-9.91,-38.35,-39.09,0,*64
1486318022.03,7629,11.0,72274.0,-9.91,-38.55,-39.29,0,*61
1486318023.23,7630,11.0,72280.8,-9.89,-38.55,-39.47,0,*68
1486318024.48,7631,11.0,72290.0,-9.89,-38.29,-39.15,0,*65
1486318025.74,7632,11.0,72284.5,-9.91,-38.29,-39.09,0,*62
1486318026.95,7633,11.0,72284.3,-9.89,-38.35,-39.29,0,*65
1486318028.15,7634,11.0,72292.5,-9.89,-38.55,-39.35,0,*69
1486318029.39,7635,11.0,72286.8,-9.89,-38.67,-39.53,0,*69
1486318030.59,7636,11.06,72292.8,-9.89,-38.73,-39.65,0,*6A
1486318031.83,7637,11.0,72296.5,-9.91,-38.67,-39.35,0,*62
1486318033.05,7638,11.0,72292.3,-9.91,-38.55,-39.35,0,*6C
1486318034.24,7639,11.0,72294.5,-9.89,-38.73,-39.47,0,*65
1486318035.45,7640,11.0,72294.5,-9.89,-38.67,-39.47,0,*6E
1486318036.7,7641,11.0,72294.0,-9.89,-38.67,-39.53,0,*6A
1486318037.91,7642,11.0,72300.3,-9.89,-38.67,-39.47,0,*6C
1486318039.1,7643,11.0,72298.8,-9.89,-38.55,-39.35,0,*69
1486318040.35,7644,11.0,72296.3,-9.91,-38.35,-39.15,0,*63
1486318041.58,7645,11.0,72292.8,-9.91,-38.35,-39.09,0,*6F
1486318042.83,7646,11.0,72298.8,-9.89,-38.49,-39.29,0,*6C
1486318044.05,7647,11.0,72302.0,-9.91,-38.55,-39.47,0,*61
1486318045.27,7648,11.0,72302.8,-9.91,-38.55,-39.35,0,*6B
1486318046.55,7649,11.0,72298.8,-9.91,-38.49,-39.15,0,*65
1486318047.8,7650,11.0,72302.0,-9.91,-38.35,-39.15,0,*66
1486318049.02,7651,11.0,72300.3,-9.91,-38.35,-39.09,0,*6A
1486318050.25,7652,11.0,72296.8,-9.89,-38.29,-39.09,0,*6D
1486318051.5,7653,11.0,72300.8,-9.89,-38.49,-39.29,0,*68
1486318052.76,7654,11.0,72302.8,-9.89,-38.49,-39.29,0,*6F
1486318054.0,7655,11.0,72302.3,-9.91,-38.35,-39.15,0,*63
1486318055.21,7656,11.06,72300.5,-9.89,-38.17,-39.09,0,*64
1486318056.43,7657,11.0,72302.8,-9.89,-38.49,-39.47,0,*64
1486318057.67,7658,11.0,72300.3,-9.91,-38.67,-39.47,0,*6E
1486318058.91,7659,11.0,72298.5,-9.91,-38.73,-39.53,0,*6F
1486318060.16,7660,11.0,72300.5,-9.91,-38.67,-39.47,0,*65
1486318061.37,7661,11.0,72296.8,-9.89,-38.67,-39.47,0,*6D
1486318062.61,7662,11.0,72298.5,-9.91,-38.67,-39.47,0,*67
1486318063.83,7663,11.0,72300.0,-9.89,-38.49,-39.35,0,*66
1486318065.06,7664,11.0,72302.5,-9.89,-38.49,-39.35,0,*61
1486318066.31,7665,11.0,72298.8,-9.89,-38.49,-39.29,0,*6D
1486318067.56,7666,11.06,72296.0,-9.91,-38.35,-39.15,0,*63
1486318068.81,7667,11.06,72298.5,-9.91,-38.55,-39.29,0,*6B
1486318070.02,7668,11.0,72296.0,-9.89,-38.35,-39.29,0,*6B
1486318071.28,7669,11.0,72302.3,-9.89,-38.49,-39.29,0,*61
1486318072.53,7670,11.0,72300.5,-9.91,-38.55,-39.15,0,*62
1486318073.75,7671,11.0,72300.0,-9.91,-38.35,-39.09,0,*68
1486318074.98,7672,11.0,72298.3,-9.89,-38.49,-39.35,0,*66
1486318076.17,7673,11.0,72298.5,-9.89,-38.55,-39.35,0,*6A
1486318077.4,7674,11.0,72296.5,-9.91,-38.85,-39.65,0,*6C
1486318078.64,7675,11.0,72300.3,-9.89,-38.67,-39.53,0,*6D
1486318079.89,7676,11.0,72300.8,-9.89,-38.67,-39.53,0,*6E
1486318081.13,7677,11.06,72300.3,-9.91,-38.67,-39.35,0,*66
1486318082.34,7678,11.06,72300.8,-9.89,-38.73,-39.53,0,*65
1486318083.58,7679,11.0,72296.5,-9.91,-38.85,-39.65,0,*61
1486318084.83,7680,11.0,72302.8,-9.91,-38.85,-39.53,0,*62
1486318086.08,7681,11.0,72304.0,-9.91,-38.85,-39.53,0,*63
1486318087.27,7682,11.0,72298.3,-9.89,-38.55,-39.47,0,*61
1486318088.52,7683,11.0,72292.5,-9.91,-38.35,-39.15,0,*68
1486318089.77,7684,11.0,72290.3,-9.91,-38.35,-39.15,0,*6F
1486318091.01,7685,11.0,72292.8,-9.91,-38.55,-39.29,0,*67
1486318092.26,7686,11.0,72296.5,-9.91,-38.35,-39.15,0,*6D
1486318093.51,7687,11.0,72288.8,-9.91,-38.55,-39.29,0,*65
1486318094.73,7688,11.0,72292.0,-9.91,-38.55,-39.35,0,*67
1486318095.98,7689,11.0,72292.0,-9.91,-38.55,-39.29,0,*6B
1486318097.2,7690,11.06,72300.5,-9.89,-38.49,-39.35,0,*6A
1486318098.47,7691,11.06,72298.0,-9.91,-38.67,-39.53,0,*6E
1486318099.71,7692,11.0,72300.0,-9.91,-38.73,-39.53,0,*68
1486318100.91,7693,11.06,72300.3,-9.89,-38.55,-39.35,0,*64
1486318102.15,7694,11.0,72296.0,-9.91,-38.67,-39.35,0,*6B
1486318103.36,7695,11.0,72288.8,-9.95,-38.55,-39.35,0,*6F
1486318104.59,7696,11.0,72294.0,-9.89,-38.17,-38.91,0,*68
1486318105.81,7697,11.0,72296.8,-9.91,-38.55,-39.35,0,*69
1486318107.05,7698,11.0,72294.0,-9.91,-38.35,-39.29,0,*6D
1486318108.3,7699,11.06,72292.3,-9.91,-38.35,-39.29,0,*6C
1486318109.55,7700,11.0,72288.5,-9.91,-38.17,-39.15,0,*62